Theta_e
288 288 289 290 291 292 293 294 296 297 297 298 299 299 298 296 296 295 295 294 294 293 292 291 291 291 291 290 290 288 287 286 285 285 286 285 284 284 284 283 282 282 282 282 282 282 282 282 282 282 282 282 281 281 281 281 282 282 281 281 281 281
287 288 289 289 290 291 292 293 294 295 296 296 297 298 297 295 294 294 293 292 293 291 290 290 290 290 290 289 288 286 285 285 284 284 284 284 283 284 283 283 282 282 281 281 281 281 281 281 281 281 281 281 281 281 281 281 281 281 280 280 281 280
287 287 288 289 289 290 290 292 293 294 294 295 295 295 294 294 294 293 293 291 291 290 289 289 289 288 289 288 287 286 285 284 284 284 284 283 283 283 282 282 282 281 281 281 281 281 280 280 280 280 280 280 280 280 280 280 280 280 280 280 279 280
286 286 287 287 288 288 289 290 291 292 293 294 294 294 293 293 292 293 292 290 290 289 289 288 288 288 288 287 286 285 284 283 283 283 282 282 282 282 282 282 281 281 281 281 280 280 280 280 280 280 280 280 280 279 279 279 280 279 279 279 279 279
286 286 287 287 288 288 288 289 290 291 292 292 293 293 293 293 292 291 291 290 289 289 288 287 286 286 285 285 284 284 283 283 282 282 282 282 281 282 282 281 281 280 280 280 280 280 280 280 279 279 280 280 280 279 279 279 279 279 279 279 278 278
285 286 286 286 287 287 288 289 289 290 291 292 292 292 292 291 291 290 289 289 288 288 287 286 285 284 284 284 283 283 283 282 281 281 281 281 281 281 281 281 280 280 280 280 279 279 279 279 279 279 280 279 280 279 279 279 279 280 280 279 279 278
285 286 286 287 287 287 288 288 289 289 290 291 291 292 292 291 290 289 289 288 288 287 286 285 284 284 283 283 283 282 282 281 280 281 281 280 280 280 280 280 280 279 279 279 279 279 279 279 279 279 279 279 280 280 279 279 279 279 279 279 279 279
286 286 286 286 287 287 288 288 288 289 289 290 291 291 291 290 289 289 288 288 287 286 285 285 284 284 283 283 283 282 281 281 280 280 280 281 280 280 280 280 279 280 279 279 279 279 279 279 279 279 279 279 279 279 279 279 279 279 279 279 279 279
285 286 286 286 287 287 287 288 288 288 289 289 289 290 290 289 288 288 288 287 287 286 285 285 284 284 283 283 283 282 281 280 280 280 280 280 280 280 280 280 279 280 279 279 279 279 279 279 279 279 279 279 279 279 279 279 278 278 278 278 278 279
286 286 286 286 286 287 287 287 288 288 288 288 289 289 289 288 287 288 288 287 287 287 286 285 284 284 283 283 282 281 280 280 280 280 280 280 280 280 280 279 279 279 279 279 279 279 279 279 279 279 279 279 279 279 279 279 278 277 277 277 277 278
288 287 286 286 286 286 286 287 287 287 288 288 288 288 288 288 287 287 287 287 287 287 286 285 284 284 283 282 282 281 280 280 280 280 280 280 280 280 280 280 279 279 279 279 279 279 279 279 279 279 279 278 278 279 279 278 278 278 277 277 276 277
289 288 287 286 286 286 286 286 287 287 287 288 288 287 288 287 287 287 287 287 287 287 286 285 284 283 283 282 281 281 280 280 280 280 280 280 280 280 280 279 279 279 279 279 279 279 279 279 279 280 282 281 279 279 278 278 278 278 277 276 276 275
288 287 287 287 286 286 286 287 287 287 287 287 287 287 287 287 286 286 286 287 286 286 285 284 284 283 282 282 282 281 280 280 280 280 280 280 280 279 279 279 279 279 279 279 279 279 279 279 279 282 284 284 283 279 278 278 278 278 277 277 276 276
291 289 288 288 287 287 286 286 286 286 286 287 287 287 286 286 286 286 286 286 286 285 284 284 283 283 282 282 281 281 281 281 280 280 280 280 279 279 279 279 279 279 279 279 279 279 279 279 282 285 285 285 284 282 279 279 278 278 277 277 277 277
294 292 290 289 288 287 287 287 286 286 287 286 287 286 285 286 286 286 286 285 285 284 284 283 283 282 282 282 281 281 281 280 280 280 279 279 279 279 279 279 279 279 279 279 279 279 279 279 284 285 286 285 285 284 280 278 278 278 278 277 277 276
292 290 289 289 289 288 288 287 287 287 287 287 286 286 285 285 285 285 285 284 284 283 283 282 282 282 282 282 282 281 280 280 280 281 281 280 279 279 279 279 279 279 278 279 278 278 278 278 284 286 286 286 286 285 282 278 278 279 278 277 277 276
290 289 288 288 287 286 286 286 286 286 285 285 285 285 284 284 284 284 284 284 283 282 282 282 282 281 282 282 282 281 280 280 281 281 280 280 279 279 279 279 278 278 279 279 279 278 278 278 284 286 286 286 287 287 285 280 279 279 278 278 277 276
289 289 290 288 285 285 286 286 285 285 284 285 285 284 284 283 283 283 283 283 282 282 282 281 281 281 281 281 281 281 281 280 281 280 280 280 279 279 279 279 279 279 279 279 279 278 278 278 284 286 286 287 287 287 285 282 280 279 278 277 277 277
287 287 286 284 284 284 284 284 284 284 283 283 283 283 282 282 282 282 282 282 281 281 281 282 281 281 281 281 281 281 280 280 280 280 280 279 279 279 279 279 279 279 279 279 278 278 278 278 283 285 286 286 287 287 284 284 282 280 278 278 278 277
284 284 284 283 282 282 283 283 283 283 282 282 281 282 281 282 282 281 281 281 281 281 281 282 281 280 280 280 280 280 281 280 280 279 280 279 279 279 279 279 278 278 279 278 278 278 278 278 281 285 286 286 286 286 284 283 282 281 280 279 279 278
282 281 281 282 281 281 282 282 282 282 281 280 281 281 281 281 281 281 281 280 280 281 281 281 281 281 280 280 280 280 280 280 280 279 279 280 280 279 279 278 278 278 278 278 278 280 279 279 280 284 285 285 286 286 284 283 282 281 280 279 279 279
281 281 281 281 280 281 281 282 282 281 280 280 280 280 280 280 281 281 281 280 280 280 280 281 281 280 280 280 281 281 281 280 279 278 279 279 279 279 278 278 278 278 278 278 278 278 279 278 278 280 284 284 285 286 284 283 282 280 280 280 280 279
281 281 280 280 280 281 281 281 281 280 279 279 280 279 280 280 280 280 280 280 279 279 280 280 281 280 281 281 281 281 280 280 279 279 279 278 278 278 278 278 278 278 277 277 277 277 278 278 277 278 282 284 284 285 285 283 282 281 281 280 280 279
279 279 279 279 280 280 281 281 280 279 279 279 279 279 279 279 280 279 279 279 279 279 279 279 279 280 280 280 280 279 279 280 279 279 279 279 278 278 277 277 277 277 277 276 276 276 276 277 279 277 280 282 283 284 285 283 282 282 280 279 279 279
279 278 278 278 279 280 280 279 278 278 278 279 278 279 279 279 279 279 278 278 278 278 278 279 279 279 280 280 280 280 279 279 279 279 279 278 278 278 277 277 276 276 276 275 275 275 275 274 275 279 277 280 282 283 284 284 283 284 282 279 278 279
278 278 278 278 278 278 279 279 278 277 277 277 278 278 279 279 278 278 278 278 278 278 278 279 279 280 281 281 281 280 279 279 279 279 278 278 278 277 277 276 275 275 275 274 275 274 273 273 272 275 278 277 279 281 282 283 283 284 281 280 279 279
278 278 277 277 277 276 277 277 279 277 277 277 278 278 278 278 278 278 278 277 277 278 278 279 280 280 281 281 281 280 279 278 278 277 277 277 277 277 276 276 275 275 274 274 274 274 273 272 272 271 274 278 278 279 280 281 282 282 282 281 280 279
278 278 277 276 276 277 277 277 279 278 277 277 277 278 278 278 278 278 277 277 277 277 278 278 278 279 280 281 281 280 280 278 278 277 276 277 276 276 276 275 274 274 273 273 273 273 272 270 270 270 269 272 275 277 279 280 280 280 281 280 280 280
278 277 277 275 274 275 275 275 275 276 277 277 278 278 278 278 277 277 276 276 276 276 277 277 278 278 278 278 278 278 278 278 278 277 276 276 276 275 275 274 274 273 273 273 272 271 270 268 267 268 267 267 267 269 271 272 272 274 275 273 272 273
278 276 275 274 272 272 272 272 272 272 275 276 278 278 278 278 277 277 276 275 276 277 277 277 274 276 277 277 277 277 276 277 277 276 275 275 275 274 274 274 273 273 272 272 271 270 268 269 268 267 267 268 267 267 267 266 266 267 267 267 268 268
277 275 274 272 271 270 270 268 267 267 272 275 276 278 278 277 275 275 274 274 275 274 274 275 275 275 274 272 271 271 273 275 275 275 271 268 271 274 274 273 272 271 270 271 270 269 269 267 268 269 272 269 271 268 265 264 266 266 266 269 273 271
275 274 272 271 270 270 269 267 266 265 266 268 275 276 276 274 273 273 272 272 272 271 272 272 272 272 272 271 271 272 272 273 275 272 271 269 275 278 277 276 269 269 269 269 268 269 269 268 268 275 276 276 276 276 275 274 274 274 271 273 278 277
274 272 271 269 269 268 268 267 266 265 265 267 272 275 274 273 273 271 270 271 271 271 270 270 269 269 269 269 270 271 271 272 275 278 278 277 278 278 279 278 278 277 274 271 265 267 276 275 276 277 277 278 278 278 278 279 279 279 279 279 277 275
272 270 269 269 268 267 266 265 263 263 263 265 269 273 273 273 273 272 270 270 269 269 269 269 268 268 268 268 269 270 271 272 272 274 278 279 279 279 279 279 278 278 277 277 272 268 268 275 277 278 278 278 278 278 278 278 279 278 278 278 278 275
272 269 268 268 267 266 266 265 263 261 262 264 267 271 272 272 272 270 269 268 268 267 267 267 268 268 268 267 267 268 269 270 271 270 271 275 279 279 279 279 279 279 278 278 278 278 277 278 278 278 278 277 277 277 277 277 277 277 276 276 271 269
269 268 267 267 266 266 266 265 261 261 260 261 266 269 271 270 270 270 269 268 268 267 267 267 267 267 268 268 268 268 268 268 269 270 271 270 269 270 273 276 278 278 278 278 278 278 277 277 277 276 276 275 275 275 275 274 273 275 274 272 267 267
267 266 266 265 265 265 265 263 260 259 258 262 266 268 268 268 267 267 266 265 266 268 267 266 266 266 265 265 266 266 265 265 265 268 269 269 268 267 266 264 266 272 275 273 274 275 276 275 275 275 274 273 273 272 273 271 263 263 261 261 262 263
266 265 264 264 264 264 263 261 259 259 258 262 265 267 266 266 266 266 266 264 264 264 264 264 263 264 264 264 263 262 263 262 264 265 263 263 263 263 261 260 261 262 268 271 272 274 274 274 273 272 272 270 270 270 270 260 258 258 258 257 257 258
Wind_Speed
8 8 9 8 8 9 9 9 9 9 9 10 12 14 13 13 11 11 9 10 9 9 10 11 10 9 9 8 8 8 9 10 9 9 8 7 7 7 7 8 9 8 7 7 7 6 6 6 6 7 6 6 7 6 6 5 5 6 6 4 5 4
8 9 9 9 10 9 8 9 8 9 10 10 10 9 9 10 11 11 11 10 9 9 8 9 10 10 11 10 10 9 9 9 9 8 9 8 7 8 9 9 9 9 9 7 7 7 6 6 6 6 7 6 6 6 6 5 6 7 7 5 4 4
7 7 7 7 5 6 6 8 10 10 9 10 11 13 11 12 12 12 11 10 10 10 12 11 10 10 9 9 9 10 10 9 9 9 7 8 8 8 9 8 9 9 8 8 7 7 7 7 7 6 7 6 7 5 6 6 6 8 5 6 6 4
5 5 5 5 6 7 8 8 8 9 10 10 10 11 11 12 12 12 11 10 10 12 11 11 10 10 9 10 10 10 9 9 9 9 10 9 8 9 9 9 8 8 9 9 8 7 7 7 7 7 6 7 8 7 5 6 7 7 7 6 6 5
7 7 7 8 9 8 8 8 9 10 10 10 10 12 12 12 12 10 10 11 11 12 11 10 10 9 10 10 9 10 8 7 9 9 11 9 9 7 8 8 8 9 8 8 8 8 7 7 7 6 7 7 8 8 7 6 7 8 8 7 6 6
5 5 7 8 8 9 10 10 9 9 10 11 10 13 11 10 10 10 10 10 11 11 11 11 9 10 9 9 7 9 8 6 9 10 10 9 8 8 7 8 8 8 9 8 8 8 8 8 7 7 6 8 8 8 8 7 6 6 6 7 7 6
7 7 8 8 8 8 8 9 10 10 11 10 12 11 9 9 9 10 10 11 12 11 11 11 10 9 9 9 7 10 8 8 8 8 9 9 8 8 8 8 6 8 8 8 9 9 8 8 8 8 8 7 6 7 7 7 6 6 6 6 6 6
5 6 7 7 8 9 9 10 10 10 10 11 10 10 9 9 8 10 11 11 12 12 12 11 9 10 11 11 10 10 9 9 10 8 8 9 10 8 7 8 7 8 8 8 8 8 8 8 8 8 8 8 8 8 7 6 6 5 5 5 5 6
8 8 8 8 8 9 9 10 10 10 10 10 10 9 9 9 9 10 11 11 12 11 12 11 10 11 10 9 9 8 9 10 10 9 9 8 9 10 9 8 7 7 9 8 9 9 9 8 8 8 9 8 8 8 8 7 6 5 4 4 5 5
5 7 8 9 10 9 10 9 10 10 11 11 9 9 9 8 10 11 11 11 12 12 12 11 11 11 10 9 9 9 9 10 10 9 7 8 10 9 9 11 10 9 9 10 10 10 9 9 8 8 9 9 9 8 8 7 6 6 5 5 4 4
8 7 8 9 8 11 11 10 10 9 8 8 9 9 11 9 10 11 11 11 12 12 10 9 9 9 9 10 10 10 10 10 9 8 7 9 9 9 11 11 11 11 10 9 10 9 8 8 9 9 9 9 8 8 8 8 8 6 6 5 5 4
6 5 6 8 11 12 11 10 11 11 11 10 9 10 10 10 11 11 11 12 12 10 9 10 9 10 10 10 10 10 10 10 9 9 9 10 9 9 9 10 10 10 11 11 10 9 9 8 7 9 12 10 10 9 7 7 8 7 6 6 5 4
4 4 7 11 11 13 12 11 10 9 10 10 10 11 10 11 12 12 13 13 10 9 9 10 10 10 11 11 10 8 10 10 9 9 8 9 8 8 7 8 9 9 9 10 10 10 8 7 7 14 15 15 13 9 8 9 7 6 6 6 7 8
6 8 11 12 11 11 11 11 9 9 12 11 11 10 10 12 12 13 12 11 9 10 10 10 10 10 10 10 10 9 9 8 9 9 8 8 8 8 8 9 10 9 8 7 7 8 8 7 9 16 16 15 16 11 8 7 6 6 6 6 6 7
10 10 10 8 9 10 11 9 9 12 11 11 11 9 11 12 12 11 11 9 9 10 9 9 10 10 9 8 9 8 9 10 10 10 10 12 10 9 10 11 11 10 9 8 9 9 7 7 12 16 16 16 16 15 10 5 6 6 5 6 8 8
8 7 8 9 8 9 8 10 12 10 8 9 8 11 10 11 10 10 10 9 9 9 9 10 9 8 8 8 9 9 10 11 12 11 9 8 8 9 9 8 9 9 10 10 10 9 8 8 13 17 17 16 16 15 11 5 6 5 7 8 8 8
6 7 7 8 8 6 6 7 8 6 7 9 10 9 10 9 10 9 9 9 9 9 8 9 10 9 8 9 9 9 9 9 8 8 7 8 9 9 10 10 10 9 9 8 8 8 8 7 13 16 16 15 15 15 11 5 4 4 6 6 7 9
8 8 8 3 3 4 6 7 6 8 7 7 9 8 8 9 9 9 8 9 8 9 9 10 9 9 8 9 8 8 8 8 8 9 7 6 5 3 3 3 4 6 7 6 7 6 8 6 14 14 16 15 14 14 7 5 6 6 7 8 8 9
5 6 3 1 3 4 5 5 6 7 7 8 7 8 8 9 9 9 9 9 9 9 10 10 10 9 9 8 9 9 9 9 8 7 6 7 6 6 6 6 5 5 6 7 7 7 7 6 11 15 14 13 13 9 5 6 5 5 8 10 10 10
5 4 3 3 3 3 5 7 8 8 8 8 7 8 8 9 9 8 9 9 8 9 9 9 9 10 9 9 10 10 8 7 6 7 7 9 9 9 8 7 7 6 6 7 7 7 7 5 7 12 12 12 13 9 7 6 7 8 8 10 10 8
1 3 5 6 6 5 6 8 9 9 8 8 8 8 9 8 8 8 9 8 8 9 9 8 9 9 10 10 9 8 9 9 8 7 6 6 5 5 5 5 6 5 5 5 6 6 5 4 5 10 10 11 12 10 6 6 6 8 9 8 10 9
5 4 5 6 6 6 8 8 9 8 8 7 7 7 8 8 8 7 7 8 9 9 8 8 9 9 9 9 8 8 8 7 7 8 7 6 6 6 5 5 5 6 5 5 6 6 6 5 4 5 11 12 14 14 8 6 7 10 10 9 8 9
4 5 5 5 6 6 6 8 8 7 7 8 8 8 7 7 7 8 8 8 8 8 8 8 9 10 8 9 9 8 8 7 8 8 8 8 6 6 6 6 5 5 5 4 4 4 4 5 5 6 11 12 14 15 13 8 9 9 9 9 9 8
7 7 6 4 6 6 6 7 8 7 7 6 6 5 6 7 8 8 7 8 8 7 7 7 6 7 8 8 9 9 7 6 7 8 8 6 7 8 7 6 5 5 4 3 4 4 4 4 7 6 9 12 13 14 18 11 10 9 8 8 9 7
7 7 6 4 4 5 4 7 8 6 6 6 5 6 7 7 8 7 7 8 8 8 8 8 9 8 8 8 8 10 9 7 8 7 7 8 7 7 7 6 5 5 4 3 3 3 4 4 5 9 7 11 14 16 18 18 11 10 8 8 10 8
7 7 5 4 4 4 4 8 8 5 5 4 3 6 6 7 7 7 7 7 7 7 6 7 8 8 8 9 9 9 10 8 8 7 7 7 7 6 6 5 5 4 5 5 4 3 3 3 4 5 8 8 12 13 15 15 16 14 8 6 6 4
9 8 6 5 5 4 4 5 9 6 6 3 4 5 7 7 7 8 7 7 7 7 7 7 6 7 7 8 9 9 8 8 8 7 5 6 5 6 6 5 5 5 5 4 5 4 4 3 4 3 6 10 11 13 14 15 15 15 15 10 7 4
8 8 9 6 5 5 4 4 7 9 5 5 5 5 7 8 8 8 8 7 7 7 8 8 7 7 7 7 5 6 6 8 7 6 5 5 5 5 5 5 5 5 5 5 4 4 4 3 3 3 3 4 4 7 10 11 11 12 13 12 9 10
10 9 8 7 3 5 5 6 5 6 6 7 7 8 8 8 9 8 8 8 8 7 8 8 7 6 6 5 5 5 5 5 5 6 6 5 6 5 5 5 6 5 4 4 3 3 3 2 2 2 2 2 2 3 2 2 3 6 6 5 4 5
11 10 9 8 5 5 6 6 6 4 5 6 7 8 9 9 9 9 8 8 7 7 7 7 9 9 6 5 6 5 5 4 5 6 7 7 7 7 6 5 5 6 6 5 4 3 3 3 3 3 4 3 2 2 1 1 2 2 1 2 3 3
10 9 10 8 4 6 6 6 4 4 5 6 7 8 10 9 8 8 8 7 7 7 6 7 7 7 7 6 6 5 3 5 5 5 3 1 1 5 7 6 5 4 4 5 6 5 3 3 3 5 5 5 6 5 3 2 3 2 2 5 7 3
10 11 10 7 5 6 7 6 4 3 2 2 6 8 11 10 9 9 7 7 7 7 7 7 7 7 7 8 7 8 7 7 8 5 6 2 4 7 6 7 4 6 6 5 3 3 4 5 4 4 7 7 7 8 8 7 8 8 6 7 11 7
8 10 10 8 6 6 6 6 4 3 2 2 4 8 10 10 9 7 7 7 7 7 8 7 7 7 7 7 8 7 9 8 8 10 9 8 8 8 10 9 9 10 8 6 3 1 5 5 5 6 5 5 6 7 8 10 10 10 11 13 8 5
9 11 11 8 7 7 6 6 4 2 2 1 4 7 9 9 11 9 7 7 6 8 7 7 8 8 8 7 7 8 8 9 11 7 10 11 11 11 11 11 11 11 10 10 9 5 0 5 6 5 5 4 4 4 3 2 3 5 6 5 4 1
9 9 9 9 8 7 6 7 3 2 2 2 3 6 9 7 8 10 8 7 7 7 8 8 8 8 8 9 9 7 8 9 10 12 9 7 11 12 10 10 10 10 9 10 11 10 8 9 10 12 11 10 10 9 7 4 8 9 8 7 4 2
9 8 9 8 8 7 7 7 4 3 2 1 3 5 7 7 7 9 10 9 9 9 7 7 8 8 7 7 7 8 8 7 8 9 13 13 8 8 11 13 13 13 14 14 14 13 12 12 12 11 10 9 7 6 4 5 3 7 11 7 3 2
9 8 6 7 7 7 7 6 2 3 3 1 4 7 8 8 8 7 7 9 7 7 8 7 6 7 7 7 7 7 7 7 6 8 9 10 11 10 9 5 5 8 11 8 8 9 10 10 10 10 10 9 6 4 3 7 3 1 4 5 4 3
7 7 6 5 6 6 7 5 3 3 3 1 4 8 9 8 8 8 7 6 6 6 5 6 6 6 7 7 6 5 6 7 7 6 6 6 6 8 8 4 3 3 5 12 11 8 9 10 11 11 11 9 7 5 4 3 2 3 3 4 2 3
Wind_Direction
214 211 210 210 208 204 203 200 196 198 200 198 196 197 193 189 190 190 190 190 189 186 186 183 182 183 185 184 179 176 179 179 174 172 177 135 138 143 153 156 155 153 148 153 148 148 145 138 135 129 128 129 125 128 125 134 128 118 113 117 122 134
211 206 203 204 204 200 200 197 195 201 199 195 198 198 188 183 189 187 189 188 185 182 181 189 187 184 183 180 174 179 184 179 176 167 160 169 151 160 160 164 159 154 150 152 149 146 143 140 132 133 129 129 128 133 130 135 134 122 125 126 127 138
214 212 211 211 204 201 194 197 200 200 196 198 196 194 189 189 189 186 191 179 187 180 187 187 184 187 184 178 180 181 182 175 176 171 170 143 169 152 162 165 162 151 147 145 150 152 148 145 136 131 130 126 125 123 125 131 133 123 125 128 135 146
218 218 209 206 193 198 200 200 199 203 204 201 195 196 196 190 191 191 184 185 185 188 188 187 188 184 180 181 179 182 179 176 177 166 148 167 160 165 162 164 155 148 147 149 148 150 146 141 135 135 138 135 130 126 137 138 137 130 132 141 145 150
194 193 199 204 204 203 200 199 202 205 206 202 203 199 201 192 189 185 183 184 187 190 188 184 184 179 176 179 181 183 177 173 158 160 157 159 158 163 162 156 154 148 144 145 147 147 145 145 139 141 142 144 142 141 151 155 149 145 148 156 162 158
178 172 198 208 210 207 205 204 204 206 207 206 204 208 198 190 184 181 182 184 189 186 182 186 180 174 175 178 177 183 179 168 162 156 156 152 148 155 149 150 155 144 148 145 149 147 143 143 143 143 147 146 149 150 151 154 153 151 155 156 158 161
181 205 208 212 211 211 210 208 206 205 209 205 208 209 197 189 180 179 183 183 186 186 187 187 179 179 179 182 175 184 171 162 155 161 157 148 155 155 147 148 155 151 153 158 155 152 152 152 150 148 147 148 149 147 146 155 158 159 156 157 159 161
192 214 217 216 215 212 212 213 211 210 209 210 207 204 193 190 177 184 181 185 187 189 190 186 179 184 185 185 183 182 176 166 159 161 156 160 153 151 158 154 162 167 158 154 154 150 147 149 154 154 152 149 145 144 148 152 154 150 149 151 161 166
216 218 220 218 218 214 215 213 212 211 210 210 202 200 193 186 180 184 187 188 191 190 193 185 182 182 183 183 182 176 174 163 158 162 166 165 158 160 158 162 160 168 164 157 155 157 157 152 153 153 150 154 155 149 152 155 151 141 138 148 162 173
228 218 219 217 221 217 221 217 215 210 207 207 197 193 189 184 183 189 191 189 195 197 193 188 181 180 179 180 177 177 177 155 162 169 160 163 166 166 164 165 170 169 165 163 165 165 161 156 155 160 159 158 159 156 152 151 148 148 158 164 172 178
232 220 215 221 218 222 221 217 217 213 214 208 195 190 196 180 185 192 191 192 199 199 187 182 180 173 172 175 177 175 173 159 160 157 157 170 173 174 171 168 168 162 164 166 166 161 163 164 167 166 163 157 153 146 146 152 159 163 165 167 177 187
237 226 214 221 219 223 220 216 214 209 207 205 193 192 190 173 191 191 193 199 201 189 178 178 177 174 169 174 180 177 170 164 161 164 166 174 176 174 170 166 167 172 169 163 165 166 166 172 168 166 159 158 158 160 157 156 160 165 162 165 175 192
227 219 223 230 222 220 218 217 211 204 208 203 194 195 184 180 190 194 196 201 192 181 174 174 179 173 175 177 173 169 166 163 163 164 166 168 167 167 166 162 165 173 176 173 168 167 171 168 165 161 164 164 156 153 162 169 165 167 168 184 187 196
271 241 231 231 226 218 215 214 202 196 210 196 197 190 175 186 192 195 199 195 181 179 176 175 172 176 177 169 171 166 163 157 158 162 164 163 163 168 165 169 174 175 172 170 169 172 170 167 162 168 167 164 163 164 166 171 171 179 179 185 194 209
252 247 243 235 227 219 218 199 189 207 203 192 195 169 181 190 191 193 193 187 179 179 174 170 171 174 171 172 163 158 156 159 164 167 171 179 175 162 171 177 169 171 166 168 171 172 168 164 169 171 170 169 170 173 166 169 174 176 189 190 208 215
256 249 242 240 233 217 205 189 199 204 189 184 170 178 184 183 188 187 187 177 178 172 170 167 165 167 165 160 159 161 168 170 176 178 176 166 164 172 173 171 170 166 170 172 173 170 167 169 175 174 174 172 175 176 168 175 178 190 202 205 213 217
263 259 257 247 233 212 181 195 195 170 167 170 172 177 173 180 177 181 178 175 171 165 165 160 160 160 159 163 166 169 168 169 167 167 168 169 170 172 176 175 174 175 172 170 166 163 168 174 179 174 172 174 179 179 173 172 179 192 215 216 216 224
235 240 250 250 191 194 188 191 168 162 168 156 164 164 167 166 172 174 167 168 166 165 161 156 157 156 158 161 159 158 161 165 168 167 160 157 156 139 126 125 145 161 164 164 162 158 166 171 178 174 177 180 181 181 181 176 185 209 221 228 223 226
248 254 264 233 181 168 174 145 145 143 138 149 152 152 157 161 168 170 167 166 164 163 161 158 154 155 156 156 155 161 164 163 158 150 143 145 148 150 155 160 164 157 159 163 167 167 170 171 184 181 180 180 180 181 193 197 199 214 225 233 231 233
250 249 199 145 121 139 138 137 136 133 137 141 144 148 156 163 172 167 164 166 164 159 157 155 152 153 157 158 165 167 164 155 145 152 156 158 160 169 175 167 157 158 160 162 169 172 168 172 183 182 182 183 188 190 199 211 214 227 230 239 240 234
157 125 107 117 119 133 133 132 131 132 136 145 150 152 158 170 165 162 163 159 154 152 151 152 154 157 160 164 163 158 155 158 154 143 143 146 147 147 134 144 145 144 152 161 162 152 154 157 174 186 189 194 202 203 213 217 229 235 237 238 245 239
109 96 113 126 139 136 133 131 129 132 139 144 145 152 166 171 165 157 144 145 149 149 152 155 157 158 157 154 145 145 145 135 131 144 146 145 142 140 143 142 144 149 155 148 153 170 171 168 166 184 196 202 209 212 214 226 229 238 240 240 245 250
108 123 128 131 131 130 128 125 122 129 137 144 150 172 173 152 138 142 143 143 145 149 153 155 157 154 152 147 145 138 136 142 142 141 144 143 139 138 141 147 144 142 140 146 154 162 169 168 174 191 201 208 214 219 219 226 231 238 244 245 246 244
100 96 86 96 120 122 124 120 120 131 140 148 166 162 136 135 136 134 136 142 145 146 146 144 137 136 134 131 132 134 134 132 135 140 140 138 140 142 140 138 139 143 151 151 166 175 180 178 181 186 210 214 220 223 225 226 231 229 239 251 252 250
103 100 106 99 103 112 117 118 123 135 145 157 166 143 137 133 133 134 136 139 141 145 143 141 138 134 133 135 137 134 132 133 130 130 132 133 136 141 145 153 152 156 169 163 171 180 186 188 196 199 205 220 225 228 232 235 237 233 229 237 252 251
103 99 90 83 87 97 116 125 124 132 135 146 130 125 120 124 126 127 129 132 134 131 132 136 133 134 137 138 138 137 138 141 140 140 145 143 146 148 153 153 150 155 170 187 192 186 184 182 178 209 203 205 223 229 233 238 243 245 243 237 252 260
115 107 91 81 85 87 101 124 127 125 124 138 123 131 127 126 125 124 125 126 129 126 123 118 119 124 128 133 136 134 136 134 137 136 137 137 139 149 156 161 163 175 184 181 198 193 182 174 183 202 216 213 218 229 234 240 244 248 253 258 264 250
106 106 103 75 63 78 87 95 124 128 143 126 119 118 122 120 118 116 119 118 117 121 122 115 109 112 117 120 119 127 137 143 147 142 144 146 150 156 158 158 167 178 180 193 194 187 172 163 170 194 217 237 241 240 244 249 254 258 260 266 273 278
119 117 111 98 56 78 77 87 74 110 127 126 128 124 122 118 115 116 116 119 118 119 121 120 123 116 110 109 103 110 118 128 134 135 143 154 157 164 168 166 172 174 175 189 183 167 154 158 175 189 216 213 218 242 266 296 306 316 329 331 338 344
130 126 118 110 96 88 89 85 82 82 111 124 128 129 124 124 131 132 131 130 130 130 131 126 125 123 114 112 118 120 115 118 137 146 162 172 170 165 172 167 172 175 182 180 160 154 153 182 188 206 206 210 199 221 214 282 296 289 270 293 287 268
126 123 118 116 112 104 97 90 73 53 91 127 134 132 126 124 121 120 120 123 120 120 120 127 127 125 120 107 83 61 83 142 150 140 102 15 121 163 163 176 174 174 172 161 158 159 177 183 204 230 199 195 190 183 171 220 232 227 233 232 245 255
125 126 120 116 118 113 109 100 83 47 27 103 137 131 128 128 123 119 122 124 123 126 124 122 122 122 124 123 119 108 82 82 107 130 130 145 139 133 140 141 167 177 158 151 179 162 154 183 210 199 174 188 193 203 196 203 206 205 205 226 245 238
127 120 119 123 124 115 113 103 85 69 30 66 139 133 133 131 123 122 126 129 134 141 136 132 129 131 124 126 123 118 114 101 80 93 107 118 127 126 118 114 123 137 144 138 143 238 146 159 161 159 164 179 189 205 215 224 231 239 241 238 238 247
143 142 134 130 125 119 113 102 69 54 18 61 133 133 134 137 136 139 144 137 137 133 134 132 133 132 129 126 129 131 129 118 116 94 94 102 108 112 114 117 120 123 127 121 120 123 236 162 163 175 169 162 147 147 154 103 53 51 49 30 16 64
128 102 107 113 125 118 117 106 76 20 23 37 127 135 132 135 132 132 134 137 134 131 132 136 139 143 141 145 143 144 139 135 129 124 121 100 102 102 113 123 123 127 136 138 136 133 133 125 116 111 104 100 87 85 85 63 42 44 28 45 53 89
114 115 111 120 125 125 118 106 69 17 1 356 112 122 126 127 130 137 146 151 150 142 146 146 150 148 152 150 145 145 143 139 138 135 130 128 126 71 58 57 75 93 102 107 109 109 110 107 101 92 90 83 78 72 67 70 45 62 61 73 98 74
115 105 121 128 125 117 109 97 40 350 332 25 121 118 115 118 121 118 111 125 136 143 144 145 144 143 141 143 145 145 140 141 143 141 145 149 142 134 122 126 45 56 78 81 91 105 103 97 89 87 80 71 62 42 73 68 44 27 20 35 50 71
125 120 122 118 116 112 106 79 5 353 338 51 127 119 120 122 124 122 125 124 119 121 124 129 132 138 140 142 138 132 128 134 140 140 137 120 118 127 133 110 77 341 39 64 58 83 105 94 88 78 72 69 59 46 89 86 99 85 75 78 68 83